Wink, TX

12:31 PM CDT on June 23, 2017 (GMT -0500)
Winkler County

Weather History for KINK - September, 2012

Change the Weather History Date:

Wednesday, September 5, 2012

  Actual Average Record
Temperature  
Mean Temperature 88 °F -  
Max Temperature 105 °F 91 °F 105 °F (1948)
Min Temperature 71 °F 65 °F 51 °F (1984)
Cooling Degree Days 22    
Growing Degree Days 38 (Base 50)    
Moisture  
Dew Point 58 °F    
Average Humidity 41    
Maximum Humidity 90    
Minimum Humidity 16    
Precipitation  
Precipitation 0.32 in - - ()
Sea Level Pressure  
Sea Level Pressure 29.78 in    
Wind  
Wind Speed 10 mph (SE)    
Max Wind Speed 29 mph    
Max Gust Speed 39 mph    
Visibility 9 miles    
Events Rain , Thunderstorm    
Averages and records for this station are not official NWS values.
T = Trace of Precipitation, MM = Missing Value Source: NWS Daily Summary

Daily Weather History Graph

Daily Weather History Graph

Search for Another Location

Airport or City:

Trip Planner

Search our weather history database for the weather conditions in past years. The results will help you decide how hot, cold, wet, or windy it might be!

Date:

Astronomy

Sep. 05, 2012 Rise Set
Actual Time 7:31 AM CDT 8:10 PM CDT
Civil Twilight 7:06 AM CDT 8:35 PM CDT
Nautical Twilight 6:37 AM CDT 9:04 PM CDT
Astronomical Twilight 6:07 AM CDT 9:34 PM CDT
Moon 11:05 PM CDT (9/5) 12:14 PM CDT (9/5)
Length of Visible Light 13h 29m
Length of Day
12h 39m
Waning Gibbous, 76% of the Moon is Illuminated
Sep 5
Waning Gibbous
Sep 8
Last Quarter
Sep 15
New
Sep 22
First Quarter
Sep 29
Full

Hourly Weather History & Observations

Time (CDT) Temp. Heat Index Dew Point Humidity Pressure Visibility Wind Dir Wind Speed Gust Speed Precip Events Conditions
12:53 AM 87.1 °F 86.7 °F 60.1 °F 40% 29.74 in 10.0 mi SSE 9.2 mph - 0.00 in Rain Light Rain
1:53 AM 84.9 °F 84.8 °F 60.1 °F 43% 29.75 in 10.0 mi SSE 8.1 mph - 0.00 in Rain Light Rain
2:53 AM 82.9 °F 83.3 °F 61.0 °F 47% 29.75 in 10.0 mi SE 8.1 mph - 0.00 in   Clear
3:53 AM 82.0 °F 82.4 °F 60.1 °F 47% 29.74 in 10.0 mi SE 9.2 mph - 0.00 in   Clear
4:53 AM 80.1 °F 80.9 °F 60.1 °F 50% 29.73 in 10.0 mi SE 9.2 mph - 0.00 in   Clear
5:53 AM 79.0 °F - 59.0 °F 50% 29.73 in 10.0 mi SE 8.1 mph - 0.00 in   Clear
6:53 AM 77.0 °F - 57.9 °F 52% 29.74 in 10.0 mi SE 6.9 mph - N/A   Clear
7:53 AM 75.9 °F - 57.9 °F 54% 29.75 in 10.0 mi SSE 5.8 mph - N/A   Clear
8:53 AM 80.1 °F 80.6 °F 57.9 °F 47% 29.78 in 10.0 mi South 9.2 mph - N/A   Clear
9:53 AM 86.0 °F 85.4 °F 59.0 °F 40% 29.78 in 10.0 mi SW 5.8 mph - N/A   Clear
10:53 AM - - - N/A% 29.93 in - North - - N/A   Unknown
11:53 AM - - - N/A% 29.92 in - North - - N/A   Unknown
12:53 PM - - - N/A% 29.91 in - North - - N/A   Unknown
1:53 PM 100.9 °F - 52.0 °F 19% 29.72 in 10.0 mi WSW 4.6 mph - N/A   Clear
2:53 PM 100.9 °F - 52.0 °F 19% 29.70 in 10.0 mi Calm Calm - N/A   Clear
3:53 PM 104.0 °F - 50.0 °F 16% 29.67 in 10.0 mi East 6.9 mph - N/A   Clear
4:53 PM 102.9 °F - 50.0 °F 17% 29.65 in 10.0 mi South 4.6 mph - N/A   Clear
5:53 PM 102.9 °F - 50.0 °F 17% 29.64 in 10.0 mi East 6.9 mph - N/A   Clear
6:53 PM 100.9 °F - 52.0 °F 19% 29.63 in 10.0 mi SSE 9.2 mph 16.1 mph N/A   Clear
7:53 PM 99.0 °F 96.5 °F 53.1 °F 21% 29.65 in 10.0 mi SE 13.8 mph 19.6 mph N/A   Clear
8:53 PM 95.0 °F 92.7 °F 54.0 °F 25% 29.67 in 10.0 mi SE 9.2 mph - N/A   Scattered Clouds
9:46 PM 93.2 °F 90.8 °F 53.6 °F 26% 29.89 in 10.0 mi NW 11.5 mph 23.0 mph N/A Thunderstorm Overcast
9:53 PM 88.0 °F 86.9 °F 57.9 °F 36% 29.74 in 10.0 mi North 23.0 mph 31.1 mph N/A Thunderstorm Thunderstorm
10:06 PM 82.4 °F 82.9 °F 60.8 °F 48% 29.94 in 10.0 mi NNW 23.0 mph 32.2 mph N/A Thunderstorm Thunderstorm
10:42 PM 71.6 °F - 66.2 °F 83% 29.97 in 1.8 mi North 28.8 mph 39.1 mph 0.25 in Thunderstorm Unknown
10:53 PM 71.1 °F - 68.0 °F 90% 29.98 in 3.0 mi NE 24.2 mph 35.7 mph 0.29 in Thunderstorm Overcast
11:53 PM 72.0 °F - 68.0 °F 87% 30.02 in 10.0 mi NNE 17.3 mph - 0.03 in Thunderstorm Thunderstorm